ATLAS 5 CENTAUR DEB, 43987

Orbit data source: Space-Track

ATLAS 5 CENTAUR DEB, 43987 is space debris in HEO originally from a launch on Wed, 17 Sep 2014 UTC launched from the Air Force Eastern Test Range (AFETR). Debris objects in space refer to the collection of defunct objects orbiting the Earth. Examples of debris include non-operational satellites, rocket bodies, and fragments generated from explosions, collisions, or faulty payload assembly.

Loading next visibility...
Identifier
43987, 2014-055AS
Orbit
HEO
Country
Flag of USUS
Related business
Flag of USUnited Launch Alliance/Lockheed Martin (US)
Manufacturer
Unknown
Mission
Spacecraft
Bus & Motor
Unknown
Mass
Unknown
Launch date (UTC)
2014-09-17 (11 years ago)
Launch vehicle
Unknown
Launch site
Air Force Eastern Test Range (AFETR)
Object type
Payload
Rocket body
Debris
Shape & HBR
Unknown shape, 1.1 m
Radar Cross Section
Small (<0.1 m²)

Expand to show TLE details & history
Last TLE update: 22 hours ago

TLE from 22 hours ago
0 ATLAS 5 CENTAUR DEB
1 43987U 14055AS  26065.20496209 -.00000062  00000-0  00000-0 0  9996
2 43987  19.9328 155.0308 4969529 142.9663 264.6172  1.84027918 50500
Epoch: 2026-03-06T04:55Z
TLE epoch observation values (Epoch: 2026-03-06T04:55:08.724Z)
Latitude
0.00002°
Longitude
-82.72131°
Altitude
28,764.007 km
Speed
2.918 km/s
True Right ascension
10h 20m 02s
True Declination
0° 00' 00"
Sunlit
Object was in daylight at epoch
Visualization orbit readout
Latitude
Unknown
Longitude
Unknown
Altitude
Unknown
Speed
Unknown
Apparent Right ascension
Unknown
Apparent Declination
Unknown
Sunlit
N/A
Visualization observer readout
Local Sidereal Time
06:45:21
Azimuth
Unknown
Elevation
Unknown
Doppler factor
Unknown
Orbital elements
Apogee altitude
35,731.838 km
Perigee altitude
7,772.81 km
Semi-major axis
28,130.461 km
Eccentricity
0.49695
Inclination
19.9328°
RAAN
155.0308°
Arg. of periapsis
142.9663°
True anomaly
216.98646°
Mean anomaly
264.6172°
Eccentric anomaly
239.96684°
Mean motion
0.46002 °/min
Orbital period
782.57 mins
BSTAR
0
Loading maneuver chart data...
Computing Atmospheric mass density...

Documentation

Showing up to 5 results
|